Weather History for Little Chicago, NT

Change the Weather History Date:

Wednesday, January 22, 2014

  Actual Average Record
Temperature  
Mean Temperature 4 °F -  
Max Temperature 12 °F - - ()
Min Temperature -3 °F - - ()
Degree Days  
Heating Degree Days 60    
Moisture  
Dew Point -2 °F    
Average Humidity 82    
Maximum Humidity 88    
Minimum Humidity 71    
Precipitation  
Precipitation 0.00 in - - ()
Sea Level Pressure  
Sea Level Pressure 29.84 in    
Wind  
Wind Speed 5 mph ()    
Max Wind Speed 13 mph    
Max Gust Speed 17 mph    
T = Trace of Precipitation, MM = Missing Value Source: Averaged Metar Reports

Daily Weather History Graph

Daily Weather History Graph

Search for Another Location

Airport:

Trip Planner

Search our weather history database for the weather conditions in past years. The results will help you decide how hot, cold, wet, or windy it might be!

Date:

Astronomy

Jan. 22, 2014 Rise Set
Actual Time 11:26 AM MST 4:19 PM MST
Civil Twilight 10:08 AM MST 5:37 PM MST
Nautical Twilight 8:56 AM MST 6:49 PM MST
Astronomical Twilight 7:52 AM MST 7:53 PM MST
Moon 1:04 AM MST (1/22) 11:13 AM MST (1/22)
Length of Visible Light 7h 29m
Length of Day
4h 52m
Waning Gibbous, 65% of the Moon is Illuminated
Jan 22
Waning Gibbous
Jan 23
Last Quarter
Jan 30
New
Feb 6
First Quarter
Feb 14
Full

Hourly Weather History & Observations

Time (MST) Temp. Windchill Dew Point Humidity Pressure Visibility Wind Dir Wind Speed Gust Speed Precip Events Conditions
12:00 AM -2.0 °F -13.9 °F -6.3 °F 82% 29.85 in - SSE 5.8 mph - N/A   Unknown
1:00 AM -2.6 °F -16.0 °F -6.9 °F 82% 29.84 in - SSE 6.9 mph - N/A   Unknown
2:00 AM -3.6 °F -15.9 °F -8.0 °F 82% 29.83 in - SSE 5.8 mph - N/A   Unknown
3:00 AM -2.9 °F -13.3 °F -7.2 °F 82% 29.82 in - ESE 4.6 mph - N/A   Unknown
4:00 AM -1.7 °F -16.2 °F -6.0 °F 82% 29.80 in - SSE 8.1 mph - N/A   Unknown
5:00 AM -2 °F - -7 °F 71% 29.80 in - SE 6.9 mph - -  
5:00 AM -2.2 °F -16.8 °F -6.7 °F 81% 29.80 in - ESE 8.1 mph - N/A   Unknown
6:00 AM -3.6 °F -17.3 °F -7.8 °F 82% 29.79 in - East 6.9 mph - N/A   Unknown
7:00 AM -2.7 °F -18.6 °F -7.1 °F 82% 29.78 in - East 9.2 mph - N/A   Unknown
8:00 AM -1.8 °F -15.2 °F -6.3 °F 81% 29.78 in - ESE 6.9 mph - N/A   Unknown
9:00 AM -2.6 °F -17.3 °F -6.9 °F 82% 29.78 in - East 8.1 mph - N/A   Unknown
10:00 AM -0.0 °F -13.0 °F -4.5 °F 81% 29.77 in - ESE 6.9 mph - N/A   Unknown
11:00 AM -2 °F - -6 °F 76% 29.78 in - East 3.5 mph - -  
11:00 AM -1.7 °F - -5.8 °F 83% 29.78 in - East 2.3 mph - N/A   Unknown
12:00 PM -2.6 °F - -6.5 °F 83% 29.78 in - South 1.2 mph - N/A   Unknown
1:00 PM 1.0 °F -6.7 °F -3.1 °F 83% 29.79 in - East 3.5 mph - N/A   Unknown
2:00 PM 2.8 °F -4.6 °F -1.8 °F 81% 29.79 in - SSE 3.5 mph - N/A   Unknown
3:00 PM 6.1 °F -0.9 °F 3.2 °F 88% 29.81 in - ESE 3.5 mph - N/A   Unknown
4:00 PM 5.5 °F -1.5 °F 2.1 °F 86% 29.83 in - South 3.5 mph - N/A   Unknown
5:00 PM 5 °F - 2 °F 79% 29.84 in - SE 2.3 mph - -  
5:00 PM 4.6 °F - 1.6 °F 87% 29.84 in - East 1.2 mph - N/A   Unknown
6:00 PM 5.0 °F - 1.6 °F 86% 29.86 in - NNW 2.3 mph - N/A   Unknown
7:00 PM 5.4 °F -5.2 °F 2.1 °F 86% 29.88 in - North 5.8 mph - N/A   Unknown
8:00 PM 8.6 °F -7.0 °F 5.2 °F 86% 29.92 in - North 12.7 mph - N/A   Unknown
9:00 PM 9.7 °F -2.4 °F 5.7 °F 84% 29.95 in - NW 8.1 mph 17.3 mph N/A   Unknown
10:00 PM 12.9 °F -0.2 °F 9.5 °F 86% 29.97 in - NNW 10.4 mph - N/A   Unknown
11:00 PM 11 °F - 8 °F 79% 30.00 in - NNW 10.4 mph - -  
11:00 PM 11.3 °F -2.2 °F 7.5 °F 85% 30.00 in - NNW 10.4 mph - N/A   Unknown